Time,TemperatureF,DewpointF,PressureIn,WindDirection,WindDirectionDegrees,WindSpeedMPH,WindSpeedGustMPH,Humidity,HourlyPrecipIn,Conditions,Clouds,dailyrainin,SoftwareType,DateUTC
2013-07-18 00:00:00,40.4,29.0,30.00,NNE,26,0.0,0.0,67,0.00,,,0.00,TxWx,2013-07-18 05:00:00,
2013-07-18 00:05:00,40.3,29.0,30.00,East,92,0.0,0.0,67,0.00,,,0.00,TxWx,2013-07-18 05:05:00,
2013-07-18 00:10:00,40.2,29.0,29.99,NNW,335,0.0,0.0,67,0.00,,,0.00,TxWx,2013-07-18 05:10:00,
2013-07-18 00:15:00,40.2,29.0,29.99,NNW,328,0.0,0.0,67,0.00,,,0.00,TxWx,2013-07-18 05:15:00,
2013-07-18 00:20:00,40.0,29.0,29.99,NW,325,0.0,0.0,67,0.00,,,0.00,TxWx,2013-07-18 05:20:00,
2013-07-18 00:25:00,40.0,29.0,29.99,SSE,148,0.0,0.0,66,0.00,,,0.00,TxWx,2013-07-18 05:25:00,
2013-07-18 00:30:00,40.1,29.0,29.99,NNE,23,0.0,0.0,66,0.00,,,0.00,TxWx,2013-07-18 05:30:00,
2013-07-18 00:35:00,40.0,29.0,29.99,NNW,327,0.0,0.0,66,0.00,,,0.00,TxWx,2013-07-18 05:35:00,
2013-07-18 00:41:00,39.7,29.0,29.99,NE,41,0.0,0.0,66,0.00,,,0.00,TxWx,2013-07-18 05:41:00,
2013-07-18 00:46:00,39.7,29.0,29.99,NNW,328,0.0,0.0,66,0.00,,,0.00,TxWx,2013-07-18 05:46:00,
2013-07-18 00:51:00,39.6,29.0,29.98,NW,323,0.0,0.0,66,0.00,,,0.00,TxWx,2013-07-18 05:51:00,
2013-07-18 00:56:00,39.6,29.0,29.99,NNE,25,0.0,0.0,66,0.00,,,0.00,TxWx,2013-07-18 05:56:00,
2013-07-18 01:01:00,39.5,29.0,29.98,NW,325,0.0,0.0,66,0.00,,,0.00,TxWx,2013-07-18 06:01:00,
2013-07-18 01:06:00,39.5,29.0,29.98,ENE,65,0.0,0.0,66,0.00,,,0.00,TxWx,2013-07-18 06:06:00,
2013-07-18 01:11:00,39.8,29.0,29.98,NNW,336,0.0,0.0,67,0.00,,,0.00,TxWx,2013-07-18 06:11:00,
2013-07-18 01:16:00,39.5,28.0,29.98,NNW,340,0.0,0.0,67,0.00,,,0.00,TxWx,2013-07-18 06:16:00,
2013-07-18 01:21:00,39.6,29.0,29.98,NNW,335,0.0,0.0,68,0.00,,,0.00,TxWx,2013-07-18 06:21:00,
2013-07-18 01:27:00,39.2,28.0,29.98,NNE,22,0.0,0.0,68,0.00,,,0.00,TxWx,2013-07-18 06:27:00,
2013-07-18 01:32:00,39.2,28.0,29.97,ESE,113,0.0,0.0,68,0.00,,,0.00,TxWx,2013-07-18 06:32:00,
2013-07-18 01:37:00,39.1,28.0,29.97,NW,326,0.0,0.0,68,0.00,,,0.00,TxWx,2013-07-18 06:37:00,
2013-07-18 01:42:00,39.0,28.0,29.97,NNE,22,0.0,0.0,68,0.00,,,0.00,TxWx,2013-07-18 06:42:00,
2013-07-18 01:47:00,39.1,28.0,29.97,NNE,23,0.0,0.0,68,0.00,,,0.00,TxWx,2013-07-18 06:47:00,
2013-07-18 01:52:00,39.3,28.0,29.97,NW,323,0.0,0.0,68,0.00,,,0.00,TxWx,2013-07-18 06:52:00,
2013-07-18 01:57:00,39.2,28.0,29.97,NNW,329,0.0,0.0,68,0.00,,,0.00,TxWx,2013-07-18 06:57:00,
2013-07-18 02:02:00,39.1,29.0,29.97,NNW,329,0.0,0.0,69,0.00,,,0.00,TxWx,2013-07-18 07:02:00,
2013-07-18 02:07:00,38.8,29.0,29.97,NNW,341,0.0,0.0,69,0.00,,,0.00,TxWx,2013-07-18 07:07:00,
2013-07-18 02:12:00,38.7,29.0,29.97,NNW,330,0.0,0.0,69,0.00,,,0.00,TxWx,2013-07-18 07:12:00,
2013-07-18 02:18:00,38.9,29.0,29.96,NNW,327,0.0,0.0,69,0.00,,,0.00,TxWx,2013-07-18 07:18:00,
2013-07-18 02:23:00,38.8,29.0,29.96,NNW,341,0.0,0.0,70,0.00,,,0.00,TxWx,2013-07-18 07:23:00,
2013-07-18 02:28:00,38.8,29.0,29.97,NNW,334,0.0,0.0,70,0.00,,,0.00,TxWx,2013-07-18 07:28:00,
2013-07-18 02:33:00,38.7,29.0,29.96,NNW,330,0.0,0.0,70,0.00,,,0.00,TxWx,2013-07-18 07:33:00,
2013-07-18 02:38:00,38.4,28.0,29.96,NW,325,0.0,0.0,71,0.00,,,0.00,TxWx,2013-07-18 07:38:00,
2013-07-18 02:43:00,38.7,29.0,29.96,NNW,329,0.0,0.0,71,0.00,,,0.00,TxWx,2013-07-18 07:43:00,
2013-07-18 02:49:00,38.4,28.0,29.96,NW,324,0.0,0.0,71,0.00,,,0.00,TxWx,2013-07-18 07:49:00,
2013-07-18 02:54:00,38.6,29.0,29.96,NW,325,0.0,0.0,71,0.00,,,0.00,TxWx,2013-07-18 07:54:00,
2013-07-18 02:59:00,38.5,28.0,29.96,NNE,25,0.0,0.0,71,0.00,,,0.00,TxWx,2013-07-18 07:59:00,
2013-07-18 03:04:00,38.0,29.0,29.96,NNE,23,0.0,0.0,72,0.00,,,0.00,TxWx,2013-07-18 08:04:00,
2013-07-18 03:09:00,38.0,29.0,29.96,NNE,22,0.0,0.0,72,0.00,,,0.00,TxWx,2013-07-18 08:09:00,
2013-07-18 03:15:00,38.2,29.0,29.96,NNE,25,0.0,0.0,73,0.00,,,0.00,TxWx,2013-07-18 08:15:00,
2013-07-18 03:20:00,38.2,29.0,29.96,NNE,23,0.0,0.0,73,0.00,,,0.00,TxWx,2013-07-18 08:20:00,
2013-07-18 03:25:00,37.9,29.0,29.96,NNE,23,0.0,0.0,73,0.00,,,0.00,TxWx,2013-07-18 08:25:00,
2013-07-18 03:31:00,37.7,29.0,29.96,NNE,23,0.0,0.0,73,0.00,,,0.00,TxWx,2013-07-18 08:31:00,
2013-07-18 03:36:00,37.4,28.0,29.96,NNE,19,0.0,0.0,74,0.00,,,0.00,TxWx,2013-07-18 08:36:00,
2013-07-18 03:41:00,37.3,29.0,29.96,NNE,21,0.0,0.0,75,0.00,,,0.00,TxWx,2013-07-18 08:41:00,
2013-07-18 03:46:00,37.3,29.0,29.96,NNE,25,0.0,0.0,76,0.00,,,0.00,TxWx,2013-07-18 08:46:00,
2013-07-18 03:51:00,37.1,29.0,29.96,NNE,24,0.0,0.0,77,0.00,,,0.00,TxWx,2013-07-18 08:51:00,
2013-07-18 03:57:00,36.7,29.0,29.96,NNE,24,0.0,0.0,77,0.00,,,0.00,TxWx,2013-07-18 08:57:00,
2013-07-18 04:02:00,36.7,30.0,29.96,NNE,27,0.0,0.0,78,0.00,,,0.00,TxWx,2013-07-18 09:02:00,
2013-07-18 04:07:00,36.7,30.0,29.95,NNE,26,0.0,0.0,78,0.00,,,0.00,TxWx,2013-07-18 09:07:00,
2013-07-18 04:12:00,36.7,30.0,29.96,NNE,25,0.0,0.0,79,0.00,,,0.00,TxWx,2013-07-18 09:12:00,
2013-07-18 04:18:00,37.0,30.0,29.95,NNE,27,0.0,0.0,79,0.00,,,0.00,TxWx,2013-07-18 09:18:00,
2013-07-18 04:24:00,36.8,30.0,29.95,NNE,26,0.0,0.0,78,0.00,,,0.00,TxWx,2013-07-18 09:24:00,
2013-07-18 04:29:00,36.4,29.0,29.96,NNE,22,0.0,0.0,79,0.00,,,0.00,TxWx,2013-07-18 09:29:00,
2013-07-18 04:34:00,36.8,30.0,29.96,NNE,22,0.0,0.0,80,0.00,,,0.00,TxWx,2013-07-18 09:34:00,
2013-07-18 04:39:00,36.5,29.0,29.95,NNE,22,0.0,0.0,79,0.00,,,0.00,TxWx,2013-07-18 09:39:00,
2013-07-18 04:44:00,36.4,29.0,29.95,NNE,22,0.0,0.0,80,0.00,,,0.00,TxWx,2013-07-18 09:44:00,
2013-07-18 04:49:00,36.4,29.0,29.95,NNE,23,0.0,0.0,79,0.00,,,0.00,TxWx,2013-07-18 09:49:00,
2013-07-18 04:54:00,36.6,30.0,29.95,NNE,23,0.0,0.0,79,0.00,,,0.00,TxWx,2013-07-18 09:54:00,
2013-07-18 04:59:00,36.6,30.0,29.95,NNE,24,0.0,0.0,80,0.00,,,0.00,TxWx,2013-07-18 09:59:00,
2013-07-18 05:04:00,36.8,30.0,29.95,NNE,23,0.0,0.0,80,0.00,,,0.00,TxWx,2013-07-18 10:04:00,
2013-07-18 05:09:00,36.8,30.0,29.94,NNW,327,0.0,0.0,79,0.00,,,0.00,TxWx,2013-07-18 10:09:00,
2013-07-18 05:14:00,36.9,30.0,29.95,NNW,331,0.0,0.0,79,0.00,,,0.00,TxWx,2013-07-18 10:14:00,
2013-07-18 05:19:00,36.8,30.0,29.95,NNW,337,0.0,0.0,79,0.00,,,0.00,TxWx,2013-07-18 10:19:00,
2013-07-18 05:25:00,36.8,30.0,29.95,NW,323,0.0,0.0,79,0.00,,,0.00,TxWx,2013-07-18 10:25:00,
2013-07-18 05:30:00,37.2,30.0,29.95,NNE,21,0.0,0.0,79,0.00,,,0.00,TxWx,2013-07-18 10:30:00,
2013-07-18 05:35:00,37.3,30.0,29.95,NW,326,0.0,0.0,79,0.00,,,0.00,TxWx,2013-07-18 10:35:00,
2013-07-18 05:40:00,37.6,32.0,29.95,East,85,0.0,0.0,79,0.00,,,0.00,TxWx,2013-07-18 10:40:00,
2013-07-18 05:46:00,37.7,32.0,29.96,NNW,331,0.0,0.0,79,0.00,,,0.00,TxWx,2013-07-18 10:46:00,
2013-07-18 05:51:00,38.2,31.0,29.96,NNW,343,0.0,0.0,79,0.00,,,0.00,TxWx,2013-07-18 10:51:00,
2013-07-18 05:56:00,38.3,31.0,29.96,NNW,329,0.0,0.0,79,0.00,,,0.00,TxWx,2013-07-18 10:56:00,
2013-07-18 06:01:00,38.6,33.0,29.96,NW,324,0.0,0.0,78,0.00,,,0.00,TxWx,2013-07-18 11:01:00,
2013-07-18 06:07:00,38.7,33.0,29.96,NNW,327,0.0,0.0,78,0.00,,,0.00,TxWx,2013-07-18 11:07:00,
2013-07-18 06:12:00,38.8,32.0,29.96,NW,324,0.0,0.0,77,0.00,,,0.00,TxWx,2013-07-18 11:12:00,
2013-07-18 06:17:00,38.8,32.0,29.96,NW,324,0.0,0.0,77,0.00,,,0.00,TxWx,2013-07-18 11:17:00,
2013-07-18 06:22:00,39.1,32.0,29.97,NNE,26,0.0,0.0,77,0.00,,,0.00,TxWx,2013-07-18 11:22:00,
2013-07-18 06:27:00,39.3,31.0,29.96,NW,323,0.0,0.0,76,0.00,,,0.00,TxWx,2013-07-18 11:27:00,
2013-07-18 06:33:00,39.3,31.0,29.97,NW,323,0.0,0.0,76,0.00,,,0.00,TxWx,2013-07-18 11:33:00,
2013-07-18 06:38:00,39.5,33.0,29.97,NNE,21,0.0,0.0,75,0.00,,,0.00,TxWx,2013-07-18 11:38:00,
2013-07-18 06:43:00,39.7,32.0,29.97,NNE,24,0.0,0.0,74,0.00,,,0.00,TxWx,2013-07-18 11:43:00,
2013-07-18 06:48:00,39.8,32.0,29.97,NNE,27,0.0,0.0,73,0.00,,,0.00,TxWx,2013-07-18 11:48:00,
2013-07-18 06:53:00,39.6,32.0,29.97,NNE,25,0.0,0.0,73,0.00,,,0.00,TxWx,2013-07-18 11:53:00,
2013-07-18 06:58:00,39.9,31.0,29.97,ENE,65,0.0,0.0,73,0.00,,,0.00,TxWx,2013-07-18 11:58:00,
2013-07-18 07:04:00,40.1,32.0,29.97,NNE,25,0.0,0.0,73,0.00,,,0.00,TxWx,2013-07-18 12:04:00,
2013-07-18 07:09:00,40.1,31.0,29.97,NNE,26,0.0,0.0,73,0.00,,,0.00,TxWx,2013-07-18 12:09:00,
2013-07-18 07:14:00,40.2,31.0,29.97,NNE,24,0.0,0.0,73,0.00,,,0.00,TxWx,2013-07-18 12:14:00,
2013-07-18 07:19:00,40.5,32.0,29.97,NNW,331,0.0,0.0,72,0.00,,,0.00,TxWx,2013-07-18 12:19:00,
2013-07-18 07:25:00,40.6,32.0,29.97,NNW,331,0.0,0.0,71,0.00,,,0.00,TxWx,2013-07-18 12:25:00,
2013-07-18 07:30:00,40.8,31.0,29.97,NNE,24,0.0,0.0,70,0.00,,,0.00,TxWx,2013-07-18 12:30:00,
2013-07-18 07:35:00,40.8,31.0,29.97,NNW,332,0.0,0.0,70,0.00,,,0.00,TxWx,2013-07-18 12:35:00,
2013-07-18 07:40:00,40.9,31.0,29.97,NNE,25,0.0,0.0,70,0.00,,,0.00,TxWx,2013-07-18 12:40:00,
2013-07-18 07:46:00,40.9,31.0,29.97,NNE,25,0.0,0.0,70,0.00,,,0.00,TxWx,2013-07-18 12:46:00,
2013-07-18 07:51:00,41.1,31.0,29.97,NNE,25,0.0,0.0,70,0.00,,,0.00,TxWx,2013-07-18 12:51:00,
2013-07-18 07:56:00,41.3,31.0,29.97,NNE,25,0.0,0.0,70,0.00,,,0.00,TxWx,2013-07-18 12:56:00,
2013-07-18 08:02:00,41.3,30.0,29.97,NNE,25,0.0,0.0,69,0.00,,,0.00,TxWx,2013-07-18 13:02:00,
2013-07-18 08:07:00,41.5,32.0,29.97,NNE,26,0.0,0.0,69,0.00,,,0.00,TxWx,2013-07-18 13:07:00,
2013-07-18 08:12:00,41.5,30.0,29.97,NNE,25,0.0,0.0,69,0.00,,,0.00,TxWx,2013-07-18 13:12:00,
2013-07-18 08:17:00,41.6,33.0,29.97,NNE,24,0.0,0.0,69,0.00,,,0.00,TxWx,2013-07-18 13:17:00,
2013-07-18 08:22:00,41.6,31.0,29.97,NNE,23,0.0,0.0,67,0.00,,,0.00,TxWx,2013-07-18 13:22:00,
2013-07-18 08:27:00,41.7,32.0,29.97,NNE,25,0.0,0.0,68,0.00,,,0.00,TxWx,2013-07-18 13:27:00,
2013-07-18 08:33:00,41.7,32.0,29.97,NNE,23,0.0,0.0,68,0.00,,,0.00,TxWx,2013-07-18 13:33:00,
2013-07-18 08:38:00,41.8,32.0,29.97,NNE,25,0.0,0.0,68,0.00,,,0.00,TxWx,2013-07-18 13:38:00,
2013-07-18 08:43:00,42.2,31.0,29.97,NNE,23,0.0,0.0,67,0.00,,,0.00,TxWx,2013-07-18 13:43:00,
2013-07-18 08:48:00,42.0,29.0,29.96,NNE,21,0.0,0.0,64,0.00,,,0.00,TxWx,2013-07-18 13:48:00,
2013-07-18 08:54:00,42.4,30.0,29.97,NNE,19,0.0,0.0,65,0.00,,,0.00,TxWx,2013-07-18 13:54:00,
2013-07-18 08:59:00,42.5,30.0,29.97,NNE,23,0.0,0.0,64,0.00,,,0.00,TxWx,2013-07-18 13:59:00,
2013-07-18 09:04:00,42.3,29.0,29.97,NW,324,0.0,0.0,63,0.00,,,0.00,TxWx,2013-07-18 14:04:00,
2013-07-18 09:09:00,42.5,32.0,29.96,NNW,336,0.0,0.0,65,0.00,,,0.00,TxWx,2013-07-18 14:09:00,
2013-07-18 09:14:00,42.8,32.0,29.96,NNE,25,0.0,0.0,66,0.00,,,0.00,TxWx,2013-07-18 14:14:00,
2013-07-18 09:20:00,43.1,31.0,29.96,NNW,336,0.0,0.0,65,0.00,,,0.00,TxWx,2013-07-18 14:20:00,
2013-07-18 09:25:00,42.8,30.0,29.96,NNE,27,0.0,0.0,64,0.00,,,0.00,TxWx,2013-07-18 14:25:00,
2013-07-18 09:30:00,43.1,30.0,29.96,NNE,26,0.0,0.0,62,0.00,,,0.00,TxWx,2013-07-18 14:30:00,
2013-07-18 09:35:00,43.1,30.0,29.96,NNE,18,0.0,0.0,63,0.00,,,0.00,TxWx,2013-07-18 14:35:00,
2013-07-18 09:40:00,42.8,30.0,29.96,NNE,18,0.0,0.0,63,0.00,,,0.00,TxWx,2013-07-18 14:40:00,
2013-07-18 09:46:00,43.2,30.0,29.96,NNE,21,0.0,0.0,63,0.00,,,0.00,TxWx,2013-07-18 14:46:00,
2013-07-18 09:51:00,43.2,30.0,29.96,NNE,22,0.0,0.0,62,0.00,,,0.00,TxWx,2013-07-18 14:51:00,
2013-07-18 09:56:00,43.4,29.0,29.95,NNE,27,0.0,0.0,61,0.00,,,0.00,TxWx,2013-07-18 14:56:00,
2013-07-18 10:01:00,43.5,30.0,29.96,NNE,23,0.0,0.0,61,0.00,,,0.00,TxWx,2013-07-18 15:01:00,
2013-07-18 10:06:00,43.5,29.0,29.96,NW,324,0.0,0.0,59,0.00,,,0.00,TxWx,2013-07-18 15:06:00,
2013-07-18 10:12:00,43.3,28.0,29.96,NNE,23,0.0,0.0,59,0.00,,,0.00,TxWx,2013-07-18 15:12:00,
2013-07-18 10:17:00,43.8,29.0,29.96,NNE,24,0.0,0.0,58,0.00,,,0.00,TxWx,2013-07-18 15:17:00,
2013-07-18 10:22:00,43.7,29.0,29.96,NNE,24,0.0,0.0,58,0.00,,,0.00,TxWx,2013-07-18 15:22:00,
2013-07-18 10:27:00,43.8,28.0,29.96,NNE,24,0.0,0.0,56,0.00,,,0.00,TxWx,2013-07-18 15:27:00,
2013-07-18 10:32:00,43.6,29.0,29.95,NNE,20,0.0,0.0,57,0.00,,,0.00,TxWx,2013-07-18 15:32:00,
2013-07-18 10:37:00,43.4,28.0,29.95,NNE,24,0.0,0.0,58,0.00,,,0.00,TxWx,2013-07-18 15:37:00,
2013-07-18 10:42:00,43.3,28.0,29.95,NNE,24,0.0,0.0,57,0.00,,,0.00,TxWx,2013-07-18 15:42:00,
2013-07-18 10:47:00,43.8,28.0,29.95,NNE,23,0.0,0.0,56,0.00,,,0.00,TxWx,2013-07-18 15:47:00,
2013-07-18 10:52:00,44.0,29.0,29.95,NNE,23,0.0,0.0,57,0.00,,,0.00,TxWx,2013-07-18 15:52:00,
2013-07-18 10:57:00,43.9,29.0,29.95,NNE,24,0.0,0.0,58,0.00,,,0.00,TxWx,2013-07-18 15:57:00,
2013-07-18 11:03:00,43.6,28.0,29.95,North,8,0.0,0.0,56,0.00,,,0.00,TxWx,2013-07-18 16:03:00,
2013-07-18 11:08:00,43.8,28.0,29.95,NNE,25,0.0,0.0,56,0.00,,,0.00,TxWx,2013-07-18 16:08:00,
2013-07-18 11:13:00,43.8,28.0,29.95,NNE,24,0.0,0.0,56,0.00,,,0.00,TxWx,2013-07-18 16:13:00,
2013-07-18 11:19:00,43.6,28.0,29.95,NNE,25,0.0,0.0,56,0.00,,,0.00,TxWx,2013-07-18 16:19:00,
2013-07-18 11:23:00,43.8,29.0,29.95,NNE,25,0.0,0.0,57,0.00,,,0.00,TxWx,2013-07-18 16:23:00,
2013-07-18 11:29:00,44.2,28.0,29.95,NNE,24,0.0,0.0,56,0.00,,,0.00,TxWx,2013-07-18 16:29:00,
2013-07-18 11:34:00,44.2,28.0,29.95,NNE,25,0.0,0.0,56,0.00,,,0.00,TxWx,2013-07-18 16:34:00,
2013-07-18 11:39:00,43.9,29.0,29.95,SE,124,0.0,0.0,57,0.00,,,0.00,TxWx,2013-07-18 16:39:00,
2013-07-18 11:44:00,43.9,29.0,29.95,NNE,24,0.0,0.0,58,0.00,,,0.00,TxWx,2013-07-18 16:44:00,
2013-07-18 11:49:00,43.6,29.0,29.95,NNE,21,0.0,0.0,58,0.00,,,0.00,TxWx,2013-07-18 16:49:00,
2013-07-18 11:55:00,43.9,29.0,29.94,NNE,19,0.0,0.0,57,0.00,,,0.00,TxWx,2013-07-18 16:55:00,
2013-07-18 12:00:00,43.5,29.0,29.94,NNE,23,0.0,0.0,57,0.00,,,0.00,TxWx,2013-07-18 17:00:00,
2013-07-18 12:05:00,43.6,27.0,29.94,NNE,22,0.0,0.0,54,0.00,,,0.00,TxWx,2013-07-18 17:05:00,
2013-07-18 12:10:00,43.7,28.0,29.94,NNE,21,0.0,0.0,55,0.00,,,0.00,TxWx,2013-07-18 17:10:00,
2013-07-18 12:15:00,43.5,28.0,29.94,NNE,22,0.0,0.0,55,0.00,,,0.00,TxWx,2013-07-18 17:15:00,
2013-07-18 12:21:00,43.8,28.0,29.93,NNE,24,0.0,0.0,55,0.00,,,0.00,TxWx,2013-07-18 17:21:00,
2013-07-18 12:26:00,43.7,27.0,29.93,NNE,19,0.0,0.0,53,0.00,,,0.00,TxWx,2013-07-18 17:26:00,
2013-07-18 12:31:00,43.7,26.0,29.93,NNE,20,0.0,0.0,52,0.00,,,0.00,TxWx,2013-07-18 17:31:00,
2013-07-18 12:36:00,43.9,26.0,29.93,NNE,20,0.0,0.0,52,0.00,,,0.00,TxWx,2013-07-18 17:36:00,
2013-07-18 12:41:00,44.1,26.0,29.93,NNE,22,0.0,0.0,52,0.00,,,0.00,TxWx,2013-07-18 17:41:00,
2013-07-18 12:46:00,44.5,27.0,29.92,NNE,16,0.0,0.0,52,0.00,,,0.00,TxWx,2013-07-18 17:46:00,
2013-07-18 12:51:00,44.5,26.0,29.92,NNE,20,0.0,0.0,52,0.00,,,0.00,TxWx,2013-07-18 17:51:00,
2013-07-18 12:56:00,44.3,26.0,29.92,NNE,25,0.0,0.0,50,0.00,,,0.00,TxWx,2013-07-18 17:56:00,
2013-07-18 13:02:00,44.3,25.0,29.92,NNE,24,0.0,0.0,50,0.00,,,0.00,TxWx,2013-07-18 18:02:00,
2013-07-18 13:07:00,44.4,26.0,29.92,NNE,25,0.0,0.0,50,0.00,,,0.00,TxWx,2013-07-18 18:07:00,
2013-07-18 13:12:00,44.8,26.0,29.91,NNE,28,0.0,0.0,50,0.00,,,0.00,TxWx,2013-07-18 18:12:00,
2013-07-18 13:17:00,44.8,26.0,29.91,NNE,25,0.0,0.0,50,0.00,,,0.00,TxWx,2013-07-18 18:17:00,
2013-07-18 13:22:00,44.7,26.0,29.91,NNE,23,0.0,0.0,49,0.00,,,0.00,TxWx,2013-07-18 18:22:00,
2013-07-18 13:27:00,44.7,26.0,29.91,NNE,25,0.0,0.0,50,0.00,,,0.00,TxWx,2013-07-18 18:27:00,
2013-07-18 13:32:00,44.5,26.0,29.91,NNE,24,0.0,0.0,50,0.00,,,0.00,TxWx,2013-07-18 18:32:00,
2013-07-18 13:38:00,44.5,26.0,29.91,NNE,30,0.0,0.0,50,0.00,,,0.00,TxWx,2013-07-18 18:38:00,
2013-07-18 13:43:00,44.4,25.0,29.91,NNE,30,0.0,0.0,50,0.00,,,0.00,TxWx,2013-07-18 18:43:00,
2013-07-18 13:48:00,44.5,26.0,29.91,NNE,28,0.0,0.0,49,0.00,,,0.00,TxWx,2013-07-18 18:48:00,
2013-07-18 13:53:00,44.9,27.0,29.90,NNE,30,0.0,0.0,51,0.00,,,0.00,TxWx,2013-07-18 18:53:00,
2013-07-18 13:58:00,44.9,26.0,29.90,NW,325,0.0,0.0,50,0.00,,,0.00,TxWx,2013-07-18 18:58:00,
2013-07-18 14:03:00,44.9,26.0,29.90,NNE,31,0.0,0.0,49,0.00,,,0.00,TxWx,2013-07-18 19:03:00,
2013-07-18 14:09:00,44.7,25.0,29.90,NNE,29,0.0,0.0,47,0.00,,,0.00,TxWx,2013-07-18 19:09:00,
2013-07-18 14:14:00,44.6,25.0,29.90,NNE,27,0.0,0.0,48,0.00,,,0.00,TxWx,2013-07-18 19:14:00,
2013-07-18 14:19:00,44.6,26.0,29.89,NNE,25,0.0,0.0,50,0.00,,,0.00,TxWx,2013-07-18 19:19:00,
2013-07-18 14:24:00,45.0,25.0,29.89,NNE,28,0.0,0.0,48,0.00,,,0.00,TxWx,2013-07-18 19:24:00,
2013-07-18 14:29:00,45.2,25.0,29.89,NNE,26,0.0,0.0,47,0.00,,,0.00,TxWx,2013-07-18 19:29:00,
2013-07-18 14:34:00,45.2,24.0,29.89,NNE,26,0.0,0.0,46,0.00,,,0.00,TxWx,2013-07-18 19:34:00,
2013-07-18 14:39:00,44.9,25.0,29.88,NNE,24,0.0,0.0,48,0.00,,,0.00,TxWx,2013-07-18 19:39:00,
2013-07-18 14:45:00,44.7,26.0,29.89,NNE,26,0.0,0.0,49,0.00,,,0.00,TxWx,2013-07-18 19:45:00,
2013-07-18 14:50:00,44.7,26.0,29.88,NNE,25,0.0,0.0,50,0.00,,,0.00,TxWx,2013-07-18 19:50:00,
2013-07-18 14:55:00,44.8,26.0,29.88,NNE,28,0.0,0.0,50,0.00,,,0.00,TxWx,2013-07-18 19:55:00,
2013-07-18 15:00:00,45.2,26.0,29.88,NNE,23,0.0,0.0,50,0.00,,,0.00,TxWx,2013-07-18 20:00:00,
2013-07-18 15:05:00,45.0,27.0,29.88,NNE,28,0.0,0.0,51,0.00,,,0.00,TxWx,2013-07-18 20:05:00,
2013-07-18 15:10:00,44.8,26.0,29.87,NNE,27,0.0,0.0,49,0.00,,,0.00,TxWx,2013-07-18 20:10:00,
2013-07-18 15:16:00,45.1,26.0,29.87,NNE,27,0.0,0.0,50,0.00,,,0.00,TxWx,2013-07-18 20:16:00,
2013-07-18 15:21:00,45.1,25.0,29.87,NW,324,0.0,0.0,47,0.00,,,0.00,TxWx,2013-07-18 20:21:00,
2013-07-18 15:26:00,44.9,24.0,29.86,NNE,24,0.0,0.0,46,0.00,,,0.00,TxWx,2013-07-18 20:26:00,
2013-07-18 15:31:00,45.0,24.0,29.86,NNE,29,0.0,0.0,46,0.00,,,0.00,TxWx,2013-07-18 20:31:00,
2013-07-18 15:36:00,45.4,24.0,29.86,NNE,27,0.0,0.0,46,0.00,,,0.00,TxWx,2013-07-18 20:36:00,
2013-07-18 15:41:00,45.2,25.0,29.86,NNE,28,0.0,0.0,47,0.00,,,0.00,TxWx,2013-07-18 20:41:00,
2013-07-18 15:46:00,45.1,25.0,29.86,NNE,28,0.0,0.0,47,0.00,,,0.00,TxWx,2013-07-18 20:46:00,
2013-07-18 15:51:00,45.2,25.0,29.85,NNW,328,0.0,0.0,48,0.00,,,0.00,TxWx,2013-07-18 20:51:00,
2013-07-18 15:57:00,44.8,25.0,29.85,NNE,28,0.0,0.0,47,0.00,,,0.00,TxWx,2013-07-18 20:57:00,
2013-07-18 16:00:00,45.0,25.0,29.85,NW,325,0.0,0.0,47,0.00,,,0.00,TxWx,2013-07-18 21:00:00,
2013-07-18 16:05:00,45.2,25.0,29.85,NNE,23,0.0,0.0,47,0.00,,,0.00,TxWx,2013-07-18 21:05:00,
2013-07-18 16:10:00,44.8,24.0,29.84,NNE,27,0.0,0.0,46,0.00,,,0.00,TxWx,2013-07-18 21:10:00,
2013-07-18 16:15:00,45.1,25.0,29.84,NNE,28,0.0,0.0,47,0.00,,,0.00,TxWx,2013-07-18 21:15:00,
2013-07-18 16:21:00,44.9,25.0,29.84,NNE,30,0.0,0.0,47,0.00,,,0.00,TxWx,2013-07-18 21:21:00,
2013-07-18 16:26:00,45.0,25.0,29.84,NNE,22,0.0,0.0,47,0.00,,,0.00,TxWx,2013-07-18 21:26:00,
2013-07-18 16:31:00,45.0,26.0,29.84,NNE,30,0.0,0.0,49,0.00,,,0.00,TxWx,2013-07-18 21:31:00,
2013-07-18 16:36:00,44.9,25.0,29.84,NNE,25,0.0,0.0,48,0.00,,,0.00,TxWx,2013-07-18 21:36:00,
2013-07-18 16:41:00,44.9,25.0,29.84,NNE,29,0.0,0.0,48,0.00,,,0.00,TxWx,2013-07-18 21:41:00,
2013-07-18 16:46:00,45.1,25.0,29.84,NNE,26,0.0,0.0,48,0.00,,,0.00,TxWx,2013-07-18 21:46:00,
2013-07-18 16:51:00,45.0,26.0,29.83,NNE,24,0.0,0.0,49,0.00,,,0.00,TxWx,2013-07-18 21:51:00,
2013-07-18 16:57:00,45.2,26.0,29.83,NNE,28,0.0,0.0,49,0.00,,,0.00,TxWx,2013-07-18 21:57:00,
2013-07-18 17:02:00,45.1,26.0,29.83,NNE,27,0.0,0.0,49,0.00,,,0.00,TxWx,2013-07-18 22:02:00,
2013-07-18 17:07:00,45.2,26.0,29.83,NNE,26,0.0,0.0,49,0.00,,,0.00,TxWx,2013-07-18 22:07:00,
2013-07-18 17:12:00,45.3,26.0,29.83,NNE,23,0.0,0.0,50,0.00,,,0.00,TxWx,2013-07-18 22:12:00,
2013-07-18 17:17:00,45.0,26.0,29.82,NNW,328,0.0,0.0,49,0.00,,,0.00,TxWx,2013-07-18 22:17:00,
2013-07-18 17:22:00,45.1,26.0,29.82,NNE,26,0.0,0.0,50,0.00,,,0.00,TxWx,2013-07-18 22:22:00,
2013-07-18 17:28:00,45.2,26.0,29.82,NNE,27,0.0,0.0,50,0.00,,,0.00,TxWx,2013-07-18 22:28:00,
2013-07-18 17:33:00,44.9,26.0,29.81,NNE,24,0.0,0.0,50,0.00,,,0.00,TxWx,2013-07-18 22:33:00,
2013-07-18 17:38:00,44.9,27.0,29.81,NNE,28,0.0,0.0,51,0.00,,,0.00,TxWx,2013-07-18 22:38:00,
2013-07-18 17:44:00,45.3,26.0,29.81,NNE,28,0.0,0.0,50,0.00,,,0.00,TxWx,2013-07-18 22:44:00,
2013-07-18 17:49:00,45.2,26.0,29.80,NNE,25,0.0,0.0,50,0.00,,,0.00,TxWx,2013-07-18 22:49:00,
2013-07-18 17:54:00,45.2,27.0,29.80,NNE,22,0.0,0.0,51,0.00,,,0.00,TxWx,2013-07-18 22:54:00,
2013-07-18 17:59:00,45.2,27.0,29.80,NNE,27,0.0,0.0,51,0.00,,,0.00,TxWx,2013-07-18 22:59:00,
2013-07-18 18:04:00,45.4,27.0,29.81,NNE,27,0.0,0.0,51,0.00,,,0.00,TxWx,2013-07-18 23:04:00,
2013-07-18 18:10:00,45.4,27.0,29.81,NNE,28,0.0,0.0,51,0.00,,,0.00,TxWx,2013-07-18 23:10:00,
2013-07-18 18:15:00,45.0,27.0,29.81,NNE,28,0.0,0.0,51,0.00,,,0.00,TxWx,2013-07-18 23:15:00,
2013-07-18 18:20:00,45.2,27.0,29.81,NNE,28,0.0,0.0,51,0.00,,,0.00,TxWx,2013-07-18 23:20:00,
2013-07-18 18:25:00,45.3,27.0,29.81,NNE,25,0.0,0.0,51,0.00,,,0.00,TxWx,2013-07-18 23:25:00,
2013-07-18 18:30:00,45.2,27.0,29.81,NNE,29,0.0,0.0,51,0.00,,,0.00,TxWx,2013-07-18 23:30:00,
2013-07-18 18:35:00,45.1,27.0,29.81,NNE,26,0.0,0.0,51,0.00,,,0.00,TxWx,2013-07-18 23:35:00,
2013-07-18 18:41:00,45.0,27.0,29.81,NNE,27,0.0,0.0,52,0.00,,,0.00,TxWx,2013-07-18 23:41:00,
2013-07-18 18:46:00,44.9,28.0,29.81,NNE,28,0.0,0.0,53,0.00,,,0.00,TxWx,2013-07-18 23:46:00,
2013-07-18 18:51:00,45.0,28.0,29.81,NNE,28,0.0,0.0,53,0.00,,,0.00,TxWx,2013-07-18 23:51:00,
2013-07-18 18:56:00,44.7,28.0,29.81,NNE,27,0.0,0.0,53,0.00,,,0.00,TxWx,2013-07-18 23:56:00,
2013-07-18 19:01:00,44.6,28.0,29.81,NNE,25,0.0,0.0,54,0.00,,,0.00,TxWx,2013-07-19 00:01:00,
2013-07-18 19:07:00,44.3,28.0,29.80,NNE,26,0.0,0.0,56,0.00,,,0.00,TxWx,2013-07-19 00:07:00,
2013-07-18 19:12:00,44.4,29.0,29.81,NNE,28,0.0,0.0,57,0.00,,,0.00,TxWx,2013-07-19 00:12:00,
2013-07-18 19:17:00,44.3,29.0,29.80,NNE,27,0.0,0.0,58,0.00,,,0.00,TxWx,2013-07-19 00:17:00,
2013-07-18 19:22:00,44.2,29.0,29.80,NNE,28,0.0,0.0,58,0.00,,,0.00,TxWx,2013-07-19 00:22:00,
2013-07-18 19:27:00,44.0,29.0,29.80,NNE,26,0.0,0.0,58,0.00,,,0.00,TxWx,2013-07-19 00:27:00,
2013-07-18 19:33:00,44.0,29.0,29.80,NNE,28,0.0,0.0,59,0.00,,,0.00,TxWx,2013-07-19 00:33:00,
2013-07-18 19:38:00,43.8,30.0,29.80,NNE,25,0.0,0.0,59,0.00,,,0.00,TxWx,2013-07-19 00:38:00,
2013-07-18 19:43:00,43.5,30.0,29.80,NNE,26,0.0,0.0,60,0.00,,,0.00,TxWx,2013-07-19 00:43:00,
2013-07-18 19:48:00,43.7,30.0,29.80,NNE,26,0.0,0.0,60,0.00,,,0.00,TxWx,2013-07-19 00:48:00,
2013-07-18 19:53:00,43.4,29.0,29.80,NNE,25,0.0,0.0,60,0.00,,,0.00,TxWx,2013-07-19 00:53:00,
2013-07-18 19:58:00,43.5,30.0,29.80,NNW,328,0.0,0.0,61,0.00,,,0.00,TxWx,2013-07-19 00:58:00,
2013-07-18 20:03:00,43.3,29.0,29.80,NNE,27,0.0,0.0,61,0.00,,,0.00,TxWx,2013-07-19 01:03:00,
2013-07-18 20:09:00,43.3,29.0,29.80,NNE,27,0.0,0.0,61,0.00,,,0.00,TxWx,2013-07-19 01:09:00,
2013-07-18 20:14:00,43.3,29.0,29.81,NNE,26,0.0,0.0,61,0.00,,,0.00,TxWx,2013-07-19 01:14:00,
2013-07-18 20:19:00,43.0,29.0,29.81,NNE,25,0.0,0.0,61,0.00,,,0.00,TxWx,2013-07-19 01:19:00,
2013-07-18 20:24:00,43.2,30.0,29.81,NW,324,0.0,0.0,62,0.00,,,0.00,TxWx,2013-07-19 01:24:00,
2013-07-18 20:29:00,43.1,30.0,29.81,NNE,25,0.0,0.0,62,0.00,,,0.00,TxWx,2013-07-19 01:29:00,
2013-07-18 20:34:00,43.1,30.0,29.81,NNE,24,0.0,0.0,62,0.00,,,0.00,TxWx,2013-07-19 01:34:00,
2013-07-18 20:39:00,42.7,30.0,29.81,NNE,25,0.0,0.0,62,0.00,,,0.00,TxWx,2013-07-19 01:39:00,
2013-07-18 20:44:00,42.8,30.0,29.81,NNE,24,0.0,0.0,62,0.00,,,0.00,TxWx,2013-07-19 01:44:00,
2013-07-18 20:49:00,42.9,30.0,29.81,NNE,26,0.0,0.0,62,0.00,,,0.00,TxWx,2013-07-19 01:49:00,
2013-07-18 20:55:00,42.9,30.0,29.81,NNE,26,0.0,0.0,62,0.00,,,0.00,TxWx,2013-07-19 01:55:00,
2013-07-18 21:00:00,42.7,30.0,29.81,NNE,25,0.0,0.0,62,0.00,,,0.00,TxWx,2013-07-19 02:00:00,
2013-07-18 21:05:00,42.6,30.0,29.81,NNE,26,0.0,0.0,62,0.00,,,0.00,TxWx,2013-07-19 02:05:00,
2013-07-18 21:10:00,42.7,30.0,29.81,NNE,28,0.0,0.0,62,0.00,,,0.00,TxWx,2013-07-19 02:10:00,
2013-07-18 21:15:00,42.9,30.0,29.81,NNE,27,0.0,0.0,62,0.00,,,0.00,TxWx,2013-07-19 02:15:00,
2013-07-18 21:20:00,42.8,30.0,29.81,NNE,28,0.0,0.0,63,0.00,,,0.00,TxWx,2013-07-19 02:20:00,
2013-07-18 21:26:00,42.6,30.0,29.81,NNE,27,0.0,0.0,63,0.00,,,0.00,TxWx,2013-07-19 02:26:00,
2013-07-18 21:31:00,42.7,30.0,29.81,NNE,28,0.0,0.0,63,0.00,,,0.00,TxWx,2013-07-19 02:31:00,
2013-07-18 21:36:00,42.7,30.0,29.81,NNE,29,0.0,0.0,63,0.00,,,0.00,TxWx,2013-07-19 02:36:00,
2013-07-18 21:41:00,42.5,29.0,29.81,NNE,28,0.0,0.0,62,0.00,,,0.00,TxWx,2013-07-19 02:41:00,
2013-07-18 21:46:00,42.5,30.0,29.81,NNE,27,0.0,0.0,62,0.00,,,0.00,TxWx,2013-07-19 02:46:00,
2013-07-18 21:51:00,42.5,30.0,29.81,NNE,24,0.0,0.0,62,0.00,,,0.00,TxWx,2013-07-19 02:51:00,
2013-07-18 21:57:00,42.3,29.0,29.81,NNE,26,0.0,0.0,63,0.00,,,0.00,TxWx,2013-07-19 02:57:00,
2013-07-18 22:02:00,42.2,29.0,29.81,NNE,25,0.0,0.0,64,0.00,,,0.00,TxWx,2013-07-19 03:02:00,
2013-07-18 22:07:00,42.2,30.0,29.81,NNE,29,0.0,0.0,64,0.00,,,0.00,TxWx,2013-07-19 03:07:00,
2013-07-18 22:12:00,42.1,30.0,29.81,NNE,29,0.0,0.0,65,0.00,,,0.00,TxWx,2013-07-19 03:12:00,
2013-07-18 22:17:00,42.0,30.0,29.81,NNE,26,0.0,0.0,65,0.00,,,0.00,TxWx,2013-07-19 03:17:00,
2013-07-18 22:23:00,42.0,30.0,29.81,NNE,27,0.0,0.0,66,0.00,,,0.00,TxWx,2013-07-19 03:23:00,
2013-07-18 22:28:00,41.8,30.0,29.81,NNE,26,0.0,0.0,66,0.00,,,0.00,TxWx,2013-07-19 03:28:00,
2013-07-18 22:33:00,41.8,31.0,29.81,NNE,25,0.0,0.0,67,0.00,,,0.00,TxWx,2013-07-19 03:33:00,
2013-07-18 22:38:00,41.7,32.0,29.81,NNE,29,0.0,0.0,68,0.00,,,0.00,TxWx,2013-07-19 03:38:00,
2013-07-18 22:43:00,41.7,32.0,29.81,NNE,29,0.0,0.0,68,0.00,,,0.00,TxWx,2013-07-19 03:43:00,
2013-07-18 22:49:00,41.8,33.0,29.81,NNE,26,0.0,0.0,69,0.00,,,0.00,TxWx,2013-07-19 03:49:00,
2013-07-18 22:54:00,41.7,33.0,29.81,NNE,27,0.0,0.0,70,0.00,,,0.00,TxWx,2013-07-19 03:54:00,
2013-07-18 22:59:00,41.6,33.0,29.81,NNE,28,0.0,0.0,70,0.00,,,0.00,TxWx,2013-07-19 03:59:00,
2013-07-18 23:01:00,41.7,33.0,29.81,NNE,28,0.0,0.0,70,0.00,,,0.00,TxWx,2013-07-19 04:01:00,
2013-07-18 23:02:00,41.8,33.0,29.81,NNE,26,0.0,0.0,71,0.00,,,0.00,TxWx,2013-07-19 04:02:00,
2013-07-18 23:08:00,41.6,33.0,29.81,NNE,27,0.0,0.0,71,0.00,,,0.00,TxWx,2013-07-19 04:08:00,
2013-07-18 23:13:00,41.3,32.0,29.80,NNE,29,0.0,0.0,72,0.00,,,0.00,TxWx,2013-07-19 04:13:00,
2013-07-18 23:18:00,41.0,33.0,29.80,NNE,28,0.0,0.0,72,0.00,,,0.00,TxWx,2013-07-19 04:18:00,
2013-07-18 23:23:00,40.9,33.0,29.80,NNE,30,0.0,0.0,73,0.00,,,0.00,TxWx,2013-07-19 04:23:00,
2013-07-18 23:28:00,40.9,33.0,29.80,NNE,29,0.0,0.0,73,0.00,,,0.00,TxWx,2013-07-19 04:28:00,
2013-07-18 23:33:00,40.8,33.0,29.80,NNE,27,0.0,0.0,73,0.00,,,0.00,TxWx,2013-07-19 04:33:00,
2013-07-18 23:38:00,40.7,33.0,29.79,NNE,27,0.0,0.0,73,0.00,,,0.00,TxWx,2013-07-19 04:38:00,
2013-07-18 23:44:00,40.7,33.0,29.79,NNE,30,0.0,0.0,73,0.00,,,0.00,TxWx,2013-07-19 04:44:00,
2013-07-18 23:49:00,40.4,32.0,29.80,NNE,27,0.0,0.0,73,0.00,,,0.00,TxWx,2013-07-19 04:49:00,
2013-07-18 23:54:00,40.5,32.0,29.79,NNE,29,0.0,0.0,73,0.00,,,0.00,TxWx,2013-07-19 04:54:00,
2013-07-18 23:59:00,40.1,32.0,29.79,NNE,28,0.0,0.0,73,0.00,,,0.00,TxWx,2013-07-19 04:59:00,